GW4745 Weather Reports


time (UTC)temp
F
wind
direction
speed
knots
gust
knots
rain 1hr
in
rain 24hr
in
rain mn
in
humidity
%
barometer
mb
20260503054613 44 0 0.0 0.0 0.00 0.00 0.00 66 1016.2
20260503053058 45 0 0.0 0.9 0.00 0.00 0.00 66 1016.1
20260503051607 44 150 0.0 1.7 0.00 0.00 0.00 66 1016.3
20260503050058 44 0 0.0 0.0 0.00 0.00 0.00 65 1016.3
20260503044607 45 0 0.0 0.0 0.00 0.00 0.00 66 1016.1
20260503043104 46 0 0.0 0.0 0.00 0.00 0.00 61 1016.1
20260503041603 47 0 0.0 1.7 0.00 0.00 0.00 58 1015.9
20260503040059 48 150 0.0 1.7 0.00 0.00 0.00 55 1015.8
20260503034604 48 150 0.0 1.7 0.00 0.00 0.00 55 1015.8
20260503033104 49 150 0.0 1.7 0.00 0.00 0.00 54 1015.7
20260503031605 49 150 0.9 3.5 0.00 0.00 0.00 53 1015.5
20260503030104 49 0 0.9 2.6 0.00 0.00 0.00 54 1015.4
20260503024559 50 150 0.9 3.5 0.00 0.00 0.00 52 1015.4
20260503023108 49 150 0.0 0.9 0.00 0.00 0.00 54 1015.3
20260503021600 50 0 0.0 0.9 0.00 0.00 0.00 51 1015.2
20260503020059 52 150 0.0 1.7 0.00 0.00 0.00 49 1015.0
20260503014603 52 150 0.0 1.7 0.00 0.00 0.00 48 1014.9
20260503013058 53 150 0.0 3.5 0.00 0.00 0.00 48 1014.5
20260503011609 54 150 1.7 6.1 0.00 0.00 0.00 46 1014.3
20260503010100 55 150 0.9 5.2 0.00 0.00 0.00 45 1014.1
20260503004559 56 150 1.7 9.6 0.00 0.00 0.00 44 1013.9
20260503003100 57 150 4.3 9.6 0.00 0.00 0.00 43 1013.5
20260503001618 57 150 2.6 7.8 0.00 0.00 0.00 43 1013.2
20260503000122 57 150 2.6 4.3 0.00 0.00 0.00 44 1012.8
20260502234606 58 150 2.6 7.0 0.00 0.00 0.00 43 1012.7
20260502233059 58 150 3.5 7.8 0.00 0.00 0.00 41 1012.5
20260502231606 58 150 7.0 12.2 0.00 0.00 0.00 40 1012.3
20260502224601 60 150 4.3 8.7 0.00 0.00 0.00 40 1011.8
20260502223057 61 150 1.7 5.2 0.00 0.00 0.00 46 1011.9
20260502221600 62 150 0.0 2.6 0.00 0.00 0.00 46 1011.5
20260502220100 62 0 0.9 2.6 0.00 0.00 0.00 42 1011.5
20260502214600 62 150 0.9 8.7 0.00 0.00 0.00 43 1011.1
20260502213101 63 150 3.5 9.6 0.00 0.00 0.00 40 1010.9
20260502211603 63 150 2.6 5.2 0.00 0.00 0.00 41 1010.9
20260502210110 63 150 1.7 3.5 0.00 0.00 0.00 40 1011.0
20260502204559 63 150 1.7 5.2 0.00 0.00 0.00 40 1010.9
20260502203058 62 150 1.7 2.6 0.00 0.00 0.00 41 1011.0
20260502201601 61 150 0.9 7.0 0.00 0.00 0.00 41 1011.3
20260502200105 61 150 4.3 12.2 0.00 0.00 0.00 40 1011.3
20260502194604 60 150 2.6 8.7 0.00 0.00 0.00 42 1011.6
20260502193059 61 150 1.7 5.2 0.00 0.00 0.00 43 1011.8
20260502191607 60 150 0.9 9.6 0.00 0.00 0.00 43 1011.9
20260502190100 59 150 2.6 6.1 0.00 0.00 0.00 43 1012.0
20260502184605 59 150 0.9 7.0 0.00 0.00 0.00 43 1012.4
20260502183100 58 150 1.7 6.1 0.00 0.00 0.00 43 1012.4
20260502181559 58 150 1.7 7.8 0.00 0.00 0.00 44 1012.5
20260502163103 53 150 6.1 10.4 0.00 0.00 0.00 50 1014.0
20260502161607 53 150 4.3 8.7 0.00 0.00 0.00 51 1014.3
20260502151631 53 150 3.5 8.7 0.00 0.00 0.00 54 1014.3
20260502150108 53 150 2.6 7.0 0.00 0.00 0.00 56 1014.4
20260502123106 52 150 0.9 3.5 0.00 0.00 0.00 75 1013.4
20260502121559 52 150 1.7 3.5 0.00 0.00 0.00 74 1013.6
20260502114613 52 150 1.7 3.5 0.00 0.00 0.00 76 1013.3
20260502113104 51 150 0.0 1.7 0.00 0.00 0.00 80 1013.2
20260502111603 51 150 0.9 2.6 0.00 0.00 0.00 80 1013.0
20260502110100 51 150 0.0 1.7 0.00 0.00 0.00 81 1013.0
20260502104558 51 0 0.0 1.7 0.00 0.00 0.00 82 1012.8
20260502103117 51 0 0.0 1.7 0.00 0.00 0.00 84 1012.7
20260502101613 51 150 0.9 1.7 0.00 0.00 0.00 84 1012.6
20260502100134 52 0 0.0 1.7 0.00 0.00 0.00 81 1012.8
20260502090128 52 0 0.0 0.0 0.00 0.00 0.00 87 1013.3
20260502070100 52 0 0.0 0.9 0.00 0.00 0.00 87 1012.2
20260502064614 52 150 0.0 4.3 0.00 0.00 0.00 87 1012.3